Regional Weather Roundup
Issued by NWS Midland/Odessa, TX

Skip options and go directly to product.
Home | Oldest Version | Next Version | Current Version | All | Text Only | Save Text | Print | Product List | Glossary On

Skip product version selection by date and time.   
153
ASUS44 KMAF 271602
RWRMAF
MIDLAND AREA WEATHER ROUNDUP
NATIONAL WEATHER SERVICE MIDLAND TX
1100 AM CDT SUN JUL 27 2014

...IN SOUTHWEST TEXAS AND SOUTHEAST NEW MEXICO...

CITY           SKY/WX    TMP DP  RH WIND       PRES   REMARKS
ALPINE         SUNNY     87  54  31 S7        30.24S
ANDREWS        FAIR      85  62  46 SE7       30.14S
ARTESIA        SUNNY     81  57  44 SE5       30.15S
BIG SPRING     SUNNY     87  64  45 SE6       30.14S
CARLSBAD       SUNNY     87  56  34 SE7       30.11S
DRYDEN           N/A     90  66  45 E9        30.07R
FORT STOCKTON  LGT RAIN  92  57  30 S6        30.09S
GUAD PASS      SUNNY     82  51  34 S7          N/A
HOBBS          SUNNY     84  59  42 SE10      30.17R
MARFA          SUNNY     82  57  42 S6        30.25R
MIDLAND AIRPK  SUNNY     86  64  47 E9        30.13R
MIDLAND INTL   SUNNY     86  65  49 SE8       30.11R
ODESSA         SUNNY     86  63  45 S13       30.12S
PECOS          SUNNY     87  56  34 CALM      30.05S
PRESIDIO       FAIR      91  55  29 E9G16     30.08S
SEMINOLE       SUNNY     87  60  40 SE6       30.16R
SNYDER         SUNNY     87  66  50 SW10      30.12S
WINK           SUNNY     88  63  43 SE9       30.07R
$$
...OTHER STATIONS IN TEXAS...

CITY           SKY/WX    TMP DP  RH WIND       PRES   REMARKS
ABILENE        SUNNY     89  69  51 S13       30.09S
AMARILLO       SUNNY     85  63  47 NE8       30.21R
AUSTIN         MOSUNNY   87  73  62 SW14G20   30.07R
BROWNSVILLE    MOSUNNY   92  74  55 SE22G28   30.04S HX 101
CORPUS CHRISTI MOSUNNY   90  75  61 S15       30.05R HX 100
DALLAS FTW     MOSUNNY   92  67  43 S9        30.03F
DEL RIO        SUNNY     86  69  56 SE14G22   30.03S
EL PASO        SUNNY     85  51  31 CALM      30.11S
HOUSTON INT    MOSUNNY   88  73  61 SW8       30.09R
LUBBOCK        MOSUNNY   86  61  42 SW6       30.17R
SAN ANGELO     SUNNY     88  67  49 MISG      30.08S
SAN ANTONIO    MOSUNNY   85  72  65 S9        30.09S
WACO           SUNNY     90  71  53 S10       30.06S
WICHITA FALLS  NOT AVBL
$$
...OTHER LOCATIONS IN NEW MEXICO...

CITY           SKY/WX    TMP DP  RH WIND       PRES   REMARKS
ALAMAGORDO     SUNNY     86  50  28 CALM      30.14S
ALBUQUERQUE    MOSUNNY   83  52  34 NW7       30.28R
CANNON AFB     SUNNY     83  58  41 VRB3      30.23R
CLOVIS         NOT AVBL
HOLLOMAN AFB   SUNNY     88  52  28 NW2       30.12S
ROSWELL        SUNNY     84  57  39 VRB3      30.17R
RUIDOSO        SUNNY     75  48  38 SE5       30.39R
SANTA FE       PTSUNNY   79  49  34 N10       30.36S
TRUTH OR CONSE SUNNY     85  53  33 NE16G24   30.19S
TUCUMCARI      SUNNY     84  58  40 NE13G22   30.21R
$$

USA.gov is the U.S. government's official web portal to all federal, state and local government web resources and services.